Time,TemperatureF,DewpointF,PressureIn,WindDirection,WindDirectionDegrees,WindSpeedMPH,WindSpeedGustMPH,Humidity,HourlyPrecipIn,Conditions,Clouds,dailyrainin,SoftwareType,DateUTC
2013-06-18 00:01:00,66.5,65.0,30.12,West,266,0.0,0.0,96,0.00,,,0.00,weatherlink.com 1.10,2013-06-18 04:01:00,
2013-06-18 00:16:00,66.4,65.0,30.11,ESE,110,0.0,0.0,96,0.00,,,0.00,weatherlink.com 1.10,2013-06-18 04:16:00,
2013-06-18 00:31:00,66.4,66.0,30.11,ESE,110,0.0,0.0,97,0.00,,,0.00,weatherlink.com 1.10,2013-06-18 04:31:00,
2013-06-18 00:46:00,66.5,66.0,30.11,ESE,110,0.0,0.0,97,0.00,,,0.00,weatherlink.com 1.10,2013-06-18 04:46:00,
2013-06-18 01:01:00,66.3,66.0,30.10,ESE,110,0.0,0.0,97,0.00,,,0.00,weatherlink.com 1.10,2013-06-18 05:01:00,
2013-06-18 01:16:00,66.2,65.0,30.09,ESE,110,0.0,0.0,97,0.00,,,0.00,weatherlink.com 1.10,2013-06-18 05:16:00,
2013-06-18 01:31:00,66.2,65.0,30.09,ESE,110,0.0,0.0,97,0.00,,,0.00,weatherlink.com 1.10,2013-06-18 05:31:00,
2013-06-18 01:46:00,66.1,65.0,30.08,ESE,110,0.0,0.0,97,0.00,,,0.00,weatherlink.com 1.10,2013-06-18 05:46:00,
2013-06-18 02:01:00,66.0,65.0,30.08,ESE,102,0.0,1.0,97,0.00,,,0.00,weatherlink.com 1.10,2013-06-18 06:01:00,
2013-06-18 02:16:00,66.2,65.0,30.08,ESE,103,0.0,1.0,97,0.00,,,0.00,weatherlink.com 1.10,2013-06-18 06:16:00,
2013-06-18 02:31:00,66.2,65.0,30.07,ESE,103,0.0,0.0,97,0.00,,,0.00,weatherlink.com 1.10,2013-06-18 06:31:00,
2013-06-18 02:46:00,66.1,65.0,30.07,ESE,103,0.0,0.0,97,0.00,,,0.00,weatherlink.com 1.10,2013-06-18 06:46:00,
2013-06-18 03:01:00,66.1,65.0,30.06,SW,228,0.0,0.0,97,0.00,,,0.00,weatherlink.com 1.10,2013-06-18 07:01:00,
2013-06-18 03:16:00,66.4,65.0,30.06,West,270,0.0,1.0,96,0.00,,,0.00,weatherlink.com 1.10,2013-06-18 07:16:00,
2013-06-18 03:31:00,66.6,66.0,30.05,NW,305,0.0,2.0,96,0.00,,,0.00,weatherlink.com 1.10,2013-06-18 07:31:00,
2013-06-18 03:46:00,66.7,66.0,30.04,NW,304,0.0,2.0,96,0.00,,,0.00,weatherlink.com 1.10,2013-06-18 07:46:00,
2013-06-18 04:01:00,66.7,66.0,30.04,WNW,284,0.0,2.0,96,0.00,,,0.00,weatherlink.com 1.10,2013-06-18 08:01:00,
2013-06-18 04:17:00,66.8,66.0,30.05,WSW,253,1.0,4.0,96,0.00,,,0.00,weatherlink.com 1.10,2013-06-18 08:17:00,
2013-06-18 04:47:00,66.7,66.0,30.04,West,276,2.0,3.0,96,0.00,,,0.00,weatherlink.com 1.10,2013-06-18 08:47:00,
2013-06-18 05:17:00,66.6,66.0,30.05,WNW,295,0.0,3.0,97,0.00,,,0.00,weatherlink.com 1.10,2013-06-18 09:17:00,
2013-06-18 05:32:00,66.6,66.0,30.05,WNW,293,0.0,2.0,97,0.00,,,0.00,weatherlink.com 1.10,2013-06-18 09:32:00,
2013-06-18 05:47:00,66.4,66.0,30.05,WSW,256,0.0,3.0,97,0.00,,,0.00,weatherlink.com 1.10,2013-06-18 09:47:00,
2013-06-18 06:03:00,66.4,65.0,30.06,NW,310,0.0,2.0,96,0.00,,,0.00,weatherlink.com 1.10,2013-06-18 10:03:00,
2013-06-18 06:17:00,66.4,65.0,30.05,NW,315,2.0,3.0,96,0.00,,,0.00,weatherlink.com 1.10,2013-06-18 10:17:00,
2013-06-18 06:32:00,66.5,65.0,30.06,West,267,2.0,3.0,96,0.00,,,0.00,weatherlink.com 1.10,2013-06-18 10:32:00,
2013-06-18 06:47:00,66.7,66.0,30.06,West,276,1.0,3.0,96,0.00,,,0.00,weatherlink.com 1.10,2013-06-18 10:47:00,
2013-06-18 07:02:00,66.9,66.0,30.06,NW,304,1.0,4.0,96,0.00,,,0.00,weatherlink.com 1.10,2013-06-18 11:02:00,
2013-06-18 07:17:00,67.3,66.0,30.05,WNW,297,1.0,4.0,95,0.00,,,0.00,weatherlink.com 1.10,2013-06-18 11:17:00,
2013-06-18 07:33:00,67.9,67.0,30.05,SW,226,0.0,2.0,95,0.00,,,0.00,weatherlink.com 1.10,2013-06-18 11:33:00,
2013-06-18 07:47:00,68.4,66.0,30.05,WNW,296,2.0,2.0,93,0.00,,,0.00,weatherlink.com 1.10,2013-06-18 11:47:00,
2013-06-18 08:02:00,68.5,66.0,30.06,WNW,285,0.0,3.0,92,0.00,,,0.00,weatherlink.com 1.10,2013-06-18 12:02:00,
2013-06-18 08:17:00,68.5,66.0,30.06,NW,325,2.0,2.0,91,0.00,,,0.00,weatherlink.com 1.10,2013-06-18 12:17:00,
2013-06-18 08:32:00,68.8,66.0,30.05,WNW,291,0.0,2.0,91,0.00,,,0.00,weatherlink.com 1.10,2013-06-18 12:32:00,
2013-06-18 08:47:00,68.7,66.0,30.05,West,281,0.0,3.0,92,0.00,,,0.00,weatherlink.com 1.10,2013-06-18 12:47:00,
2013-06-18 09:02:00,68.9,66.0,30.06,WSW,258,0.0,3.0,91,0.00,,,0.00,weatherlink.com 1.10,2013-06-18 13:02:00,
2013-06-18 09:17:00,69.2,67.0,30.06,WNW,298,2.0,4.0,91,0.00,,,0.00,weatherlink.com 1.10,2013-06-18 13:17:00,
2013-06-18 09:32:00,69.6,67.0,30.06,WNW,284,1.0,4.0,90,0.00,,,0.00,weatherlink.com 1.10,2013-06-18 13:32:00,
2013-06-18 09:47:00,69.2,66.0,30.06,West,269,0.0,4.0,90,0.00,,,0.00,weatherlink.com 1.10,2013-06-18 13:47:00,
2013-06-18 10:02:00,68.6,67.0,30.06,WNW,294,1.0,3.0,93,0.03,,,0.03,weatherlink.com 1.10,2013-06-18 14:02:00,
2013-06-18 10:17:00,68.2,67.0,30.05,WSW,246,0.0,4.0,94,0.03,,,0.03,weatherlink.com 1.10,2013-06-18 14:17:00,
2013-06-18 10:32:00,67.9,66.0,30.05,WSW,250,0.0,7.0,94,0.04,,,0.04,weatherlink.com 1.10,2013-06-18 14:32:00,
2013-06-18 10:48:00,68.1,66.0,30.05,West,280,0.0,4.0,94,0.04,,,0.04,weatherlink.com 1.10,2013-06-18 14:48:00,
2013-06-18 11:17:00,68.8,67.0,30.03,West,266,0.0,5.0,94,0.01,,,0.04,weatherlink.com 1.10,2013-06-18 15:17:00,
2013-06-18 11:32:00,69.6,67.0,30.02,WSW,248,0.0,5.0,92,0.00,,,0.04,weatherlink.com 1.10,2013-06-18 15:32:00,
2013-06-18 11:47:00,72.0,68.0,30.02,WSW,245,3.0,4.0,87,0.00,,,0.04,weatherlink.com 1.10,2013-06-18 15:47:00,
2013-06-18 12:02:00,74.7,70.0,30.02,NNE,25,2.0,5.0,84,0.00,,,0.04,weatherlink.com 1.10,2013-06-18 16:02:00,
2013-06-18 12:17:00,74.5,68.0,30.01,WNW,295,1.0,5.0,80,0.00,,,0.04,weatherlink.com 1.10,2013-06-18 16:17:00,
2013-06-18 12:32:00,75.7,70.0,30.01,WNW,293,1.0,5.0,81,0.00,,,0.04,weatherlink.com 1.10,2013-06-18 16:32:00,
2013-06-18 12:47:00,76.4,69.0,30.00,ENE,57,2.0,4.0,78,0.00,,,0.04,weatherlink.com 1.10,2013-06-18 16:47:00,
2013-06-18 13:02:00,76.6,70.0,30.00,West,267,2.0,6.0,79,0.00,,,0.04,weatherlink.com 1.10,2013-06-18 17:02:00,
2013-06-18 13:17:00,75.9,69.0,30.00,West,272,1.0,4.0,79,0.00,,,0.04,weatherlink.com 1.10,2013-06-18 17:17:00,
2013-06-18 13:32:00,76.9,69.0,30.00,NNW,338,1.0,6.0,77,0.00,,,0.04,weatherlink.com 1.10,2013-06-18 17:32:00,
2013-06-18 13:48:00,78.6,70.0,29.99,West,266,1.0,5.0,76,0.00,,,0.04,weatherlink.com 1.10,2013-06-18 17:48:00,
2013-06-18 14:03:00,78.1,70.0,29.99,WSW,248,2.0,6.0,75,0.00,,,0.04,weatherlink.com 1.10,2013-06-18 18:03:00,
2013-06-18 14:18:00,76.7,69.0,29.99,WSW,253,2.0,5.0,76,0.00,,,0.04,weatherlink.com 1.10,2013-06-18 18:18:00,
2013-06-18 14:33:00,76.4,69.0,29.99,West,274,1.0,4.0,77,0.00,,,0.04,weatherlink.com 1.10,2013-06-18 18:33:00,
2013-06-18 14:48:00,77.4,70.0,29.99,NNW,328,2.0,3.0,77,0.00,,,0.04,weatherlink.com 1.10,2013-06-18 18:48:00,
2013-06-18 15:03:00,76.4,68.0,29.99,WSW,254,1.0,7.0,74,0.00,,,0.04,weatherlink.com 1.10,2013-06-18 19:03:00,
2013-06-18 15:18:00,77.0,67.0,29.99,NNE,20,1.0,6.0,71,0.00,,,0.04,weatherlink.com 1.10,2013-06-18 19:18:00,
2013-06-18 15:33:00,78.5,68.0,29.98,SW,219,2.0,6.0,69,0.00,,,0.04,weatherlink.com 1.10,2013-06-18 19:33:00,
2013-06-18 15:48:00,78.4,67.0,29.98,SSE,156,2.0,7.0,69,0.00,,,0.04,weatherlink.com 1.10,2013-06-18 19:48:00,
2013-06-18 16:03:00,76.4,68.0,29.97,SW,222,5.0,9.0,74,0.00,,,0.04,weatherlink.com 1.10,2013-06-18 20:03:00,
2013-06-18 16:18:00,75.9,67.0,29.98,NNW,330,3.0,4.0,74,0.00,,,0.04,weatherlink.com 1.10,2013-06-18 20:18:00,
2013-06-18 16:33:00,76.2,67.0,29.98,NW,326,1.0,2.0,73,0.00,,,0.04,weatherlink.com 1.10,2013-06-18 20:33:00,
2013-06-18 16:48:00,75.5,67.0,29.98,West,278,0.0,2.0,76,0.00,,,0.04,weatherlink.com 1.10,2013-06-18 20:48:00,
2013-06-18 17:03:00,74.2,68.0,29.98,WNW,297,0.0,1.0,80,0.01,,,0.05,weatherlink.com 1.10,2013-06-18 21:03:00,
2013-06-18 17:18:00,73.8,68.0,29.98,East,99,0.0,3.0,83,0.01,,,0.05,weatherlink.com 1.10,2013-06-18 21:18:00,
2013-06-18 17:33:00,73.4,69.0,29.98,SSW,211,0.0,2.0,85,0.01,,,0.05,weatherlink.com 1.10,2013-06-18 21:33:00,
2013-06-18 17:48:00,73.3,70.0,29.97,NNE,18,0.0,2.0,88,0.02,,,0.06,weatherlink.com 1.10,2013-06-18 21:48:00,
2013-06-18 18:03:00,73.7,69.0,29.97,NE,37,0.0,2.0,85,0.01,,,0.06,weatherlink.com 1.10,2013-06-18 22:03:00,
2013-06-18 18:18:00,73.3,67.0,29.97,ENE,62,0.0,3.0,81,0.01,,,0.06,weatherlink.com 1.10,2013-06-18 22:18:00,
2013-06-18 18:33:00,72.7,67.0,29.97,South,190,0.0,1.0,83,0.01,,,0.06,weatherlink.com 1.10,2013-06-18 22:33:00,
2013-06-18 18:48:00,72.6,68.0,29.98,East,100,0.0,1.0,84,0.00,,,0.06,weatherlink.com 1.10,2013-06-18 22:48:00,
2013-06-18 19:03:00,72.2,66.0,29.98,East,89,0.0,2.0,80,0.00,,,0.06,weatherlink.com 1.10,2013-06-18 23:03:00,
2013-06-18 19:18:00,72.3,66.0,29.98,East,82,0.0,1.0,81,0.00,,,0.06,weatherlink.com 1.10,2013-06-18 23:18:00,
2013-06-18 19:33:00,72.0,65.0,30.00,SE,141,0.0,1.0,78,0.00,,,0.06,weatherlink.com 1.10,2013-06-18 23:33:00,
2013-06-18 19:48:00,71.4,66.0,30.00,NE,34,2.0,4.0,82,0.00,,,0.06,weatherlink.com 1.10,2013-06-18 23:48:00,
2013-06-18 20:03:00,70.8,66.0,30.00,SE,130,0.0,3.0,84,0.00,,,0.06,weatherlink.com 1.10,2013-06-19 00:03:00,
2013-06-18 20:18:00,69.9,65.0,30.00,SE,135,0.0,1.0,85,0.00,,,0.06,weatherlink.com 1.10,2013-06-19 00:18:00,
2013-06-18 20:33:00,69.0,65.0,30.01,SSE,151,0.0,1.0,87,0.00,,,0.06,weatherlink.com 1.10,2013-06-19 00:33:00,
2013-06-18 20:48:00,68.0,65.0,30.01,SSE,150,0.0,0.0,89,0.00,,,0.06,weatherlink.com 1.10,2013-06-19 00:48:00,
2013-06-18 21:03:00,67.2,64.0,30.02,SSE,150,0.0,0.0,90,0.00,,,0.06,weatherlink.com 1.10,2013-06-19 01:03:00,
2013-06-18 21:18:00,66.4,64.0,30.01,SSE,150,0.0,0.0,92,0.00,,,0.06,weatherlink.com 1.10,2013-06-19 01:18:00,
2013-06-18 21:33:00,65.8,64.0,30.02,SSE,150,0.0,0.0,93,0.00,,,0.06,weatherlink.com 1.10,2013-06-19 01:33:00,
2013-06-18 21:48:00,65.4,63.0,30.03,East,84,0.0,0.0,93,0.00,,,0.06,weatherlink.com 1.10,2013-06-19 01:48:00,
2013-06-18 22:03:00,64.9,63.0,30.03,East,83,0.0,0.0,93,0.00,,,0.06,weatherlink.com 1.10,2013-06-19 02:03:00,
2013-06-18 22:18:00,64.5,63.0,30.04,East,83,0.0,0.0,94,0.00,,,0.06,weatherlink.com 1.10,2013-06-19 02:18:00,
2013-06-18 22:33:00,64.1,63.0,30.05,East,83,0.0,0.0,95,0.00,,,0.06,weatherlink.com 1.10,2013-06-19 02:33:00,
2013-06-18 22:48:00,63.8,62.0,30.05,East,84,0.0,0.0,95,0.00,,,0.06,weatherlink.com 1.10,2013-06-19 02:48:00,
2013-06-18 23:03:00,63.5,62.0,30.06,East,84,0.0,0.0,95,0.00,,,0.06,weatherlink.com 1.10,2013-06-19 03:03:00,
2013-06-18 23:18:00,63.2,62.0,30.07,East,84,0.0,0.0,95,0.00,,,0.06,weatherlink.com 1.10,2013-06-19 03:18:00,
2013-06-18 23:33:00,62.8,62.0,30.07,East,83,0.0,1.0,96,0.00,,,0.06,weatherlink.com 1.10,2013-06-19 03:33:00,
2013-06-18 23:48:00,62.5,61.0,30.08,South,172,0.0,1.0,95,0.00,,,0.06,weatherlink.com 1.10,2013-06-19 03:48:00,